Information on these data can be found in provided Readme document
Contact Info: Zachary Fasnacht (zachary.fasnacht@ssaihq.com); Nickolay Krotkov (nickolay.a.krotkov@nasa.gov); Lok Lamsal (lok.lamsal@nasa.gov)

FillValue: -999.
ScaleFactor: 1e15
Units: molecules/cm^2

Date(yyyy-mm-dd),City,Country,LonCenter,LatCenter,BoundingCoordinates,Median,Q1,Q3,Mean,Baseline_Median,Baseline_Q1,Baseline_Q3,Baseline_Mean,NumGoodSamples,NumTotalSamples
2015-01-01,Tripoli,Libya,13.2001,32.9501,[12.7001 32.4501 13.7001 33.4501],1.075,0.758,1.728,1.389,1.11,0.597,1.771,1.325,52.0,574.0
2015-01-02,Tripoli,Libya,13.2001,32.9501,[12.7001 32.4501 13.7001 33.4501],1.007,0.526,1.728,1.336,1.076,0.569,1.655,1.28,51.0,573.0
2015-01-03,Tripoli,Libya,13.2001,32.9501,[12.7001 32.4501 13.7001 33.4501],0.999,0.526,1.41,1.282,1.068,0.602,1.677,1.278,52.0,576.0
2015-01-04,Tripoli,Libya,13.2001,32.9501,[12.7001 32.4501 13.7001 33.4501],0.999,0.526,1.618,1.27,1.099,0.601,1.701,1.294,73.0,579.0
2015-01-05,Tripoli,Libya,13.2001,32.9501,[12.7001 32.4501 13.7001 33.4501],0.982,0.382,1.618,1.162,1.116,0.585,1.842,1.346,88.0,584.0
2015-01-06,Tripoli,Libya,13.2001,32.9501,[12.7001 32.4501 13.7001 33.4501],0.968,0.382,1.409,1.076,1.13,0.587,1.788,1.312,85.0,584.0
2015-01-07,Tripoli,Libya,13.2001,32.9501,[12.7001 32.4501 13.7001 33.4501],0.968,0.382,1.602,1.128,1.141,0.593,1.83,1.325,103.0,567.0
2015-01-08,Tripoli,Libya,13.2001,32.9501,[12.7001 32.4501 13.7001 33.4501],0.968,0.382,1.602,1.128,1.161,0.602,1.86,1.352,103.0,566.0
2015-01-09,Tripoli,Libya,13.2001,32.9501,[12.7001 32.4501 13.7001 33.4501],1.24,0.748,1.996,1.401,1.212,0.674,1.938,1.425,136.0,563.0
2015-01-10,Tripoli,Libya,13.2001,32.9501,[12.7001 32.4501 13.7001 33.4501],1.24,0.748,1.996,1.401,1.272,0.711,1.985,1.457,136.0,521.0
2015-01-11,Tripoli,Libya,13.2001,32.9501,[12.7001 32.4501 13.7001 33.4501],1.346,0.792,2.098,1.499,1.294,0.748,1.999,1.485,168.0,523.0
2015-01-12,Tripoli,Libya,13.2001,32.9501,[12.7001 32.4501 13.7001 33.4501],1.403,0.827,2.228,1.638,1.344,0.794,2.087,1.548,195.0,535.0
2015-01-13,Tripoli,Libya,13.2001,32.9501,[12.7001 32.4501 13.7001 33.4501],1.409,0.837,2.228,1.655,1.361,0.791,2.131,1.556,191.0,532.0
2015-01-14,Tripoli,Libya,13.2001,32.9501,[12.7001 32.4501 13.7001 33.4501],1.527,0.868,2.28,1.757,1.404,0.816,2.18,1.64,216.0,526.0
2015-01-15,Tripoli,Libya,13.2001,32.9501,[12.7001 32.4501 13.7001 33.4501],1.618,0.893,2.348,1.83,1.41,0.81,2.214,1.652,187.0,530.0
2015-01-16,Tripoli,Libya,13.2001,32.9501,[12.7001 32.4501 13.7001 33.4501],1.576,0.968,2.228,1.778,1.44,0.875,2.205,1.706,216.0,516.0
2015-01-17,Tripoli,Libya,13.2001,32.9501,[12.7001 32.4501 13.7001 33.4501],1.586,0.969,2.228,1.795,1.421,0.857,2.156,1.675,213.0,520.0
2015-01-18,Tripoli,Libya,13.2001,32.9501,[12.7001 32.4501 13.7001 33.4501],1.556,1.01,2.228,1.757,1.46,0.879,2.238,1.717,242.0,519.0
2015-01-19,Tripoli,Libya,13.2001,32.9501,[12.7001 32.4501 13.7001 33.4501],1.605,1.084,2.231,1.823,1.459,0.884,2.21,1.695,224.0,524.0
2015-01-20,Tripoli,Libya,13.2001,32.9501,[12.7001 32.4501 13.7001 33.4501],1.609,1.131,2.245,1.883,1.403,0.867,2.186,1.664,209.0,527.0
2015-01-21,Tripoli,Libya,13.2001,32.9501,[12.7001 32.4501 13.7001 33.4501],1.609,1.121,2.28,1.894,1.48,0.949,2.229,1.733,221.0,536.0
2015-01-22,Tripoli,Libya,13.2001,32.9501,[12.7001 32.4501 13.7001 33.4501],1.645,1.154,2.316,1.944,1.527,0.965,2.243,1.746,203.0,541.0
2015-01-23,Tripoli,Libya,13.2001,32.9501,[12.7001 32.4501 13.7001 33.4501],1.647,1.142,2.28,1.925,1.51,0.946,2.239,1.729,213.0,525.0
2015-01-24,Tripoli,Libya,13.2001,32.9501,[12.7001 32.4501 13.7001 33.4501],1.605,1.112,2.193,1.909,1.502,0.93,2.223,1.722,180.0,525.0
2015-01-25,Tripoli,Libya,13.2001,32.9501,[12.7001 32.4501 13.7001 33.4501],1.514,1.035,2.182,1.828,1.491,0.929,2.254,1.732,209.0,568.0
2015-01-26,Tripoli,Libya,13.2001,32.9501,[12.7001 32.4501 13.7001 33.4501],1.485,1.035,2.193,1.859,1.514,0.933,2.285,1.752,173.0,574.0
2015-01-27,Tripoli,Libya,13.2001,32.9501,[12.7001 32.4501 13.7001 33.4501],1.485,1.072,2.134,1.724,1.494,0.95,2.32,1.717,183.0,575.0
2015-01-28,Tripoli,Libya,13.2001,32.9501,[12.7001 32.4501 13.7001 33.4501],1.501,1.035,2.164,1.741,1.435,0.91,2.249,1.707,215.0,588.0
2015-01-29,Tripoli,Libya,13.2001,32.9501,[12.7001 32.4501 13.7001 33.4501],1.451,1.02,2.074,1.642,1.401,0.86,2.151,1.629,190.0,583.0
2015-01-30,Tripoli,Libya,13.2001,32.9501,[12.7001 32.4501 13.7001 33.4501],1.451,0.99,2.116,1.624,1.355,0.836,2.132,1.594,214.0,576.0
2015-01-31,Tripoli,Libya,13.2001,32.9501,[12.7001 32.4501 13.7001 33.4501],1.485,0.943,2.164,1.647,1.346,0.793,2.119,1.561,185.0,581.0
2015-02-01,Tripoli,Libya,13.2001,32.9501,[12.7001 32.4501 13.7001 33.4501],1.451,0.92,2.138,1.633,1.357,0.82,2.077,1.573,203.0,567.0
2015-02-02,Tripoli,Libya,13.2001,32.9501,[12.7001 32.4501 13.7001 33.4501],1.451,0.862,2.228,1.65,1.35,0.8,2.103,1.579,168.0,572.0
2015-02-03,Tripoli,Libya,13.2001,32.9501,[12.7001 32.4501 13.7001 33.4501],1.451,0.848,2.176,1.649,1.404,0.834,2.133,1.616,162.0,571.0
2015-02-04,Tripoli,Libya,13.2001,32.9501,[12.7001 32.4501 13.7001 33.4501],1.451,0.853,2.228,1.653,1.417,0.863,2.168,1.662,166.0,576.0
2015-02-05,Tripoli,Libya,13.2001,32.9501,[12.7001 32.4501 13.7001 33.4501],1.545,0.932,2.276,1.726,1.35,0.798,2.079,1.6,178.0,580.0
2015-02-06,Tripoli,Libya,13.2001,32.9501,[12.7001 32.4501 13.7001 33.4501],1.501,0.869,2.276,1.686,1.288,0.782,2.048,1.567,196.0,587.0
2015-02-07,Tripoli,Libya,13.2001,32.9501,[12.7001 32.4501 13.7001 33.4501],1.501,0.848,2.276,1.693,1.27,0.737,2.019,1.525,186.0,589.0
2015-02-08,Tripoli,Libya,13.2001,32.9501,[12.7001 32.4501 13.7001 33.4501],1.501,0.848,2.276,1.693,1.233,0.734,1.891,1.458,186.0,571.0
2015-02-09,Tripoli,Libya,13.2001,32.9501,[12.7001 32.4501 13.7001 33.4501],1.57,0.874,2.327,1.757,1.19,0.658,1.826,1.414,157.0,571.0
2015-02-10,Tripoli,Libya,13.2001,32.9501,[12.7001 32.4501 13.7001 33.4501],1.467,0.843,2.261,1.634,1.151,0.643,1.81,1.367,189.0,567.0
2015-02-11,Tripoli,Libya,13.2001,32.9501,[12.7001 32.4501 13.7001 33.4501],1.305,0.704,2.327,1.583,1.114,0.585,1.811,1.357,152.0,525.0
2015-02-12,Tripoli,Libya,13.2001,32.9501,[12.7001 32.4501 13.7001 33.4501],1.305,0.704,2.261,1.548,1.162,0.606,1.868,1.393,122.0,526.0
2015-02-13,Tripoli,Libya,13.2001,32.9501,[12.7001 32.4501 13.7001 33.4501],1.305,0.704,2.228,1.533,1.148,0.584,1.885,1.385,127.0,539.0
2015-02-14,Tripoli,Libya,13.2001,32.9501,[12.7001 32.4501 13.7001 33.4501],1.305,0.758,2.228,1.556,1.191,0.636,1.946,1.466,103.0,534.0
2015-02-15,Tripoli,Libya,13.2001,32.9501,[12.7001 32.4501 13.7001 33.4501],1.27,0.565,2.202,1.425,1.227,0.642,2.01,1.457,123.0,527.0
2015-02-16,Tripoli,Libya,13.2001,32.9501,[12.7001 32.4501 13.7001 33.4501],1.28,0.565,2.202,1.418,1.226,0.626,2.045,1.469,105.0,533.0
2015-02-17,Tripoli,Libya,13.2001,32.9501,[12.7001 32.4501 13.7001 33.4501],1.272,0.758,2.202,1.428,1.233,0.655,1.992,1.444,132.0,518.0
2015-02-18,Tripoli,Libya,13.2001,32.9501,[12.7001 32.4501 13.7001 33.4501],1.272,0.758,2.202,1.428,1.214,0.648,1.987,1.439,132.0,522.0
2015-02-19,Tripoli,Libya,13.2001,32.9501,[12.7001 32.4501 13.7001 33.4501],1.305,0.778,2.202,1.498,1.166,0.651,1.974,1.424,140.0,522.0
2015-02-20,Tripoli,Libya,13.2001,32.9501,[12.7001 32.4501 13.7001 33.4501],1.158,0.696,2.007,1.301,1.182,0.665,1.945,1.402,121.0,527.0
2015-02-21,Tripoli,Libya,13.2001,32.9501,[12.7001 32.4501 13.7001 33.4501],1.218,0.758,2.05,1.336,1.207,0.645,1.945,1.393,103.0,528.0
2015-02-22,Tripoli,Libya,13.2001,32.9501,[12.7001 32.4501 13.7001 33.4501],1.218,0.758,2.05,1.336,1.216,0.707,1.96,1.434,103.0,535.0
2015-02-23,Tripoli,Libya,13.2001,32.9501,[12.7001 32.4501 13.7001 33.4501],1.218,0.758,2.05,1.336,1.223,0.692,1.947,1.423,103.0,539.0
2015-02-24,Tripoli,Libya,13.2001,32.9501,[12.7001 32.4501 13.7001 33.4501],1.158,0.638,2.115,1.339,1.273,0.759,2.04,1.488,122.0,522.0
2015-02-25,Tripoli,Libya,13.2001,32.9501,[12.7001 32.4501 13.7001 33.4501],1.218,0.565,2.13,1.388,1.293,0.749,2.045,1.501,90.0,522.0
2015-02-26,Tripoli,Libya,13.2001,32.9501,[12.7001 32.4501 13.7001 33.4501],1.272,0.799,1.971,1.425,1.317,0.806,2.019,1.536,112.0,564.0
2015-02-27,Tripoli,Libya,13.2001,32.9501,[12.7001 32.4501 13.7001 33.4501],1.258,0.799,1.971,1.405,1.298,0.782,1.982,1.5,110.0,569.0
2015-02-28,Tripoli,Libya,13.2001,32.9501,[12.7001 32.4501 13.7001 33.4501],1.272,0.799,1.971,1.417,1.338,0.811,1.998,1.529,106.0,572.0
2015-03-01,Tripoli,Libya,13.2001,32.9501,[12.7001 32.4501 13.7001 33.4501],1.293,0.799,2.016,1.492,1.308,0.797,1.911,1.472,129.0,586.0
2015-03-02,Tripoli,Libya,13.2001,32.9501,[12.7001 32.4501 13.7001 33.4501],1.398,0.949,2.156,1.627,1.289,0.809,1.902,1.483,109.0,582.0
2015-03-03,Tripoli,Libya,13.2001,32.9501,[12.7001 32.4501 13.7001 33.4501],1.394,0.877,2.192,1.6,1.299,0.765,1.864,1.432,123.0,574.0
2015-03-04,Tripoli,Libya,13.2001,32.9501,[12.7001 32.4501 13.7001 33.4501],1.519,0.835,2.156,1.653,1.303,0.758,1.897,1.462,96.0,578.0
2015-03-05,Tripoli,Libya,13.2001,32.9501,[12.7001 32.4501 13.7001 33.4501],1.376,0.793,2.115,1.608,1.276,0.735,1.893,1.428,125.0,564.0
2015-03-06,Tripoli,Libya,13.2001,32.9501,[12.7001 32.4501 13.7001 33.4501],1.314,0.764,1.971,1.526,1.295,0.742,1.893,1.437,113.0,567.0
2015-03-07,Tripoli,Libya,13.2001,32.9501,[12.7001 32.4501 13.7001 33.4501],1.253,0.792,2.146,1.536,1.27,0.716,1.913,1.436,148.0,565.0
2015-03-08,Tripoli,Libya,13.2001,32.9501,[12.7001 32.4501 13.7001 33.4501],1.253,0.788,2.146,1.532,1.333,0.763,1.982,1.478,153.0,570.0
2015-03-09,Tripoli,Libya,13.2001,32.9501,[12.7001 32.4501 13.7001 33.4501],1.253,0.788,2.146,1.532,1.309,0.706,1.976,1.437,153.0,573.0
2015-03-10,Tripoli,Libya,13.2001,32.9501,[12.7001 32.4501 13.7001 33.4501],1.289,0.764,2.149,1.541,1.308,0.743,2.008,1.457,180.0,579.0
2015-03-11,Tripoli,Libya,13.2001,32.9501,[12.7001 32.4501 13.7001 33.4501],1.314,0.827,2.092,1.564,1.301,0.741,2.054,1.488,161.0,582.0
2015-03-12,Tripoli,Libya,13.2001,32.9501,[12.7001 32.4501 13.7001 33.4501],1.376,0.835,2.092,1.626,1.328,0.722,2.099,1.52,181.0,562.0
2015-03-13,Tripoli,Libya,13.2001,32.9501,[12.7001 32.4501 13.7001 33.4501],1.376,0.764,2.254,1.65,1.316,0.716,2.1,1.502,159.0,562.0
2015-03-14,Tripoli,Libya,13.2001,32.9501,[12.7001 32.4501 13.7001 33.4501],1.377,0.827,2.149,1.661,1.321,0.732,2.117,1.516,185.0,558.0
2015-03-15,Tripoli,Libya,13.2001,32.9501,[12.7001 32.4501 13.7001 33.4501],1.377,0.827,2.149,1.663,1.365,0.736,2.149,1.53,184.0,515.0
2015-03-16,Tripoli,Libya,13.2001,32.9501,[12.7001 32.4501 13.7001 33.4501],1.458,0.951,2.356,1.709,1.391,0.79,2.259,1.569,194.0,514.0
2015-03-17,Tripoli,Libya,13.2001,32.9501,[12.7001 32.4501 13.7001 33.4501],1.458,0.951,2.356,1.709,1.38,0.765,2.208,1.548,194.0,528.0
2015-03-18,Tripoli,Libya,13.2001,32.9501,[12.7001 32.4501 13.7001 33.4501],1.458,0.971,2.364,1.729,1.418,0.821,2.231,1.584,180.0,527.0
2015-03-19,Tripoli,Libya,13.2001,32.9501,[12.7001 32.4501 13.7001 33.4501],1.398,0.9,2.356,1.674,1.404,0.806,2.207,1.562,208.0,521.0
2015-03-20,Tripoli,Libya,13.2001,32.9501,[12.7001 32.4501 13.7001 33.4501],1.469,0.952,2.415,1.706,1.423,0.834,2.224,1.57,179.0,524.0
2015-03-21,Tripoli,Libya,13.2001,32.9501,[12.7001 32.4501 13.7001 33.4501],1.398,0.919,2.356,1.675,1.385,0.79,2.189,1.527,185.0,512.0
2015-03-22,Tripoli,Libya,13.2001,32.9501,[12.7001 32.4501 13.7001 33.4501],1.517,0.952,2.356,1.722,1.415,0.8,2.195,1.555,145.0,515.0
2015-03-23,Tripoli,Libya,13.2001,32.9501,[12.7001 32.4501 13.7001 33.4501],1.326,0.793,2.228,1.551,1.35,0.759,2.154,1.509,176.0,516.0
2015-03-24,Tripoli,Libya,13.2001,32.9501,[12.7001 32.4501 13.7001 33.4501],1.326,0.774,2.228,1.543,1.372,0.76,2.158,1.539,183.0,523.0
2015-03-25,Tripoli,Libya,13.2001,32.9501,[12.7001 32.4501 13.7001 33.4501],1.269,0.73,2.145,1.467,1.369,0.725,2.147,1.522,176.0,523.0
2015-03-26,Tripoli,Libya,13.2001,32.9501,[12.7001 32.4501 13.7001 33.4501],1.253,0.727,2.168,1.456,1.299,0.721,2.046,1.433,205.0,530.0
2015-03-27,Tripoli,Libya,13.2001,32.9501,[12.7001 32.4501 13.7001 33.4501],1.165,0.703,2.156,1.392,1.305,0.733,1.987,1.414,185.0,535.0
2015-03-28,Tripoli,Libya,13.2001,32.9501,[12.7001 32.4501 13.7001 33.4501],1.167,0.703,2.145,1.398,1.275,0.726,1.966,1.372,206.0,520.0
2015-03-29,Tripoli,Libya,13.2001,32.9501,[12.7001 32.4501 13.7001 33.4501],1.093,0.684,2.214,1.346,1.255,0.704,1.948,1.353,180.0,520.0
2015-03-30,Tripoli,Libya,13.2001,32.9501,[12.7001 32.4501 13.7001 33.4501],0.975,0.666,1.943,1.255,1.131,0.645,1.834,1.296,217.0,563.0
2015-03-31,Tripoli,Libya,13.2001,32.9501,[12.7001 32.4501 13.7001 33.4501],0.892,0.597,1.507,1.059,1.129,0.649,1.741,1.27,184.0,570.0
2015-04-01,Tripoli,Libya,13.2001,32.9501,[12.7001 32.4501 13.7001 33.4501],0.801,0.485,1.29,0.961,1.078,0.626,1.642,1.216,213.0,568.0
2015-04-02,Tripoli,Libya,13.2001,32.9501,[12.7001 32.4501 13.7001 33.4501],0.79,0.46,1.253,0.925,1.053,0.562,1.609,1.172,242.0,578.0
2015-04-03,Tripoli,Libya,13.2001,32.9501,[12.7001 32.4501 13.7001 33.4501],0.81,0.481,1.328,0.942,1.059,0.578,1.629,1.175,241.0,577.0
2015-04-04,Tripoli,Libya,13.2001,32.9501,[12.7001 32.4501 13.7001 33.4501],0.818,0.483,1.419,1.02,1.058,0.593,1.673,1.215,268.0,571.0
2015-04-05,Tripoli,Libya,13.2001,32.9501,[12.7001 32.4501 13.7001 33.4501],0.835,0.483,1.49,1.033,1.085,0.603,1.709,1.25,280.0,574.0
2015-04-06,Tripoli,Libya,13.2001,32.9501,[12.7001 32.4501 13.7001 33.4501],0.886,0.485,1.502,1.091,1.029,0.566,1.63,1.209,309.0,563.0
2015-04-07,Tripoli,Libya,13.2001,32.9501,[12.7001 32.4501 13.7001 33.4501],0.877,0.483,1.49,1.1,1.024,0.562,1.621,1.205,273.0,565.0
2015-04-08,Tripoli,Libya,13.2001,32.9501,[12.7001 32.4501 13.7001 33.4501],0.96,0.548,1.644,1.255,1.017,0.568,1.631,1.217,305.0,562.0
2015-04-09,Tripoli,Libya,13.2001,32.9501,[12.7001 32.4501 13.7001 33.4501],1.036,0.574,1.742,1.352,1.028,0.571,1.628,1.223,318.0,572.0
2015-04-10,Tripoli,Libya,13.2001,32.9501,[12.7001 32.4501 13.7001 33.4501],1.039,0.587,1.701,1.347,1.021,0.568,1.622,1.226,308.0,573.0
2015-04-11,Tripoli,Libya,13.2001,32.9501,[12.7001 32.4501 13.7001 33.4501],1.039,0.595,1.701,1.354,1.037,0.581,1.595,1.215,336.0,580.0
2015-04-12,Tripoli,Libya,13.2001,32.9501,[12.7001 32.4501 13.7001 33.4501],1.009,0.586,1.677,1.331,1.022,0.575,1.565,1.201,322.0,580.0
2015-04-13,Tripoli,Libya,13.2001,32.9501,[12.7001 32.4501 13.7001 33.4501],1.039,0.587,1.68,1.341,1.028,0.573,1.572,1.197,342.0,561.0
2015-04-14,Tripoli,Libya,13.2001,32.9501,[12.7001 32.4501 13.7001 33.4501],1.061,0.577,1.833,1.421,1.024,0.578,1.584,1.203,305.0,560.0
2015-04-15,Tripoli,Libya,13.2001,32.9501,[12.7001 32.4501 13.7001 33.4501],1.078,0.586,1.89,1.419,0.997,0.546,1.589,1.187,337.0,558.0
2015-04-16,Tripoli,Libya,13.2001,32.9501,[12.7001 32.4501 13.7001 33.4501],1.229,0.729,2.207,1.563,1.044,0.57,1.665,1.217,308.0,519.0
2015-04-17,Tripoli,Libya,13.2001,32.9501,[12.7001 32.4501 13.7001 33.4501],1.247,0.764,2.168,1.568,1.069,0.594,1.697,1.255,308.0,521.0
2015-04-18,Tripoli,Libya,13.2001,32.9501,[12.7001 32.4501 13.7001 33.4501],1.227,0.746,2.111,1.543,1.078,0.596,1.682,1.255,311.0,532.0
2015-04-19,Tripoli,Libya,13.2001,32.9501,[12.7001 32.4501 13.7001 33.4501],1.236,0.757,2.079,1.526,1.064,0.581,1.677,1.233,307.0,530.0
2015-04-20,Tripoli,Libya,13.2001,32.9501,[12.7001 32.4501 13.7001 33.4501],1.234,0.73,2.061,1.496,1.072,0.589,1.68,1.208,315.0,523.0
2015-04-21,Tripoli,Libya,13.2001,32.9501,[12.7001 32.4501 13.7001 33.4501],1.227,0.744,2.07,1.493,1.075,0.616,1.675,1.209,304.0,528.0
2015-04-22,Tripoli,Libya,13.2001,32.9501,[12.7001 32.4501 13.7001 33.4501],1.236,0.764,2.146,1.525,1.079,0.624,1.728,1.228,334.0,514.0
2015-04-23,Tripoli,Libya,13.2001,32.9501,[12.7001 32.4501 13.7001 33.4501],1.226,0.746,1.942,1.433,1.061,0.6,1.64,1.185,295.0,518.0
2015-04-24,Tripoli,Libya,13.2001,32.9501,[12.7001 32.4501 13.7001 33.4501],1.351,0.829,2.0,1.469,1.116,0.641,1.714,1.217,301.0,515.0
2015-04-25,Tripoli,Libya,13.2001,32.9501,[12.7001 32.4501 13.7001 33.4501],1.369,0.829,2.176,1.528,1.122,0.653,1.766,1.241,312.0,522.0
2015-04-26,Tripoli,Libya,13.2001,32.9501,[12.7001 32.4501 13.7001 33.4501],1.343,0.806,2.176,1.502,1.113,0.616,1.781,1.237,312.0,527.0
2015-04-27,Tripoli,Libya,13.2001,32.9501,[12.7001 32.4501 13.7001 33.4501],1.375,0.829,2.225,1.575,1.177,0.672,1.902,1.311,334.0,536.0
2015-04-28,Tripoli,Libya,13.2001,32.9501,[12.7001 32.4501 13.7001 33.4501],1.409,0.829,2.226,1.596,1.243,0.698,1.947,1.359,341.0,544.0
2015-04-29,Tripoli,Libya,13.2001,32.9501,[12.7001 32.4501 13.7001 33.4501],1.387,0.829,2.226,1.625,1.271,0.718,1.964,1.385,359.0,529.0
2015-04-30,Tripoli,Libya,13.2001,32.9501,[12.7001 32.4501 13.7001 33.4501],1.409,0.859,2.242,1.658,1.283,0.748,1.965,1.406,327.0,524.0
2015-05-01,Tripoli,Libya,13.2001,32.9501,[12.7001 32.4501 13.7001 33.4501],1.332,0.777,2.079,1.549,1.289,0.737,1.942,1.397,367.0,567.0
2015-05-02,Tripoli,Libya,13.2001,32.9501,[12.7001 32.4501 13.7001 33.4501],1.343,0.792,2.176,1.602,1.31,0.772,1.964,1.416,338.0,573.0
2015-05-03,Tripoli,Libya,13.2001,32.9501,[12.7001 32.4501 13.7001 33.4501],1.405,0.928,2.089,1.625,1.298,0.788,1.936,1.425,345.0,579.0
2015-05-04,Tripoli,Libya,13.2001,32.9501,[12.7001 32.4501 13.7001 33.4501],1.405,0.954,2.089,1.643,1.298,0.804,1.929,1.433,353.0,590.0
2015-05-05,Tripoli,Libya,13.2001,32.9501,[12.7001 32.4501 13.7001 33.4501],1.408,0.99,2.11,1.682,1.311,0.813,1.935,1.46,345.0,586.0
2015-05-06,Tripoli,Libya,13.2001,32.9501,[12.7001 32.4501 13.7001 33.4501],1.408,0.99,2.155,1.691,1.323,0.842,1.962,1.487,350.0,578.0
2015-05-07,Tripoli,Libya,13.2001,32.9501,[12.7001 32.4501 13.7001 33.4501],1.409,0.926,2.089,1.687,1.337,0.844,1.946,1.483,338.0,586.0
2015-05-08,Tripoli,Libya,13.2001,32.9501,[12.7001 32.4501 13.7001 33.4501],1.409,0.949,2.031,1.673,1.343,0.867,1.959,1.501,368.0,572.0
2015-05-09,Tripoli,Libya,13.2001,32.9501,[12.7001 32.4501 13.7001 33.4501],1.339,0.847,1.888,1.617,1.292,0.814,1.909,1.462,329.0,576.0
2015-05-10,Tripoli,Libya,13.2001,32.9501,[12.7001 32.4501 13.7001 33.4501],1.417,0.919,2.058,1.658,1.324,0.848,1.974,1.493,338.0,586.0
2015-05-11,Tripoli,Libya,13.2001,32.9501,[12.7001 32.4501 13.7001 33.4501],1.451,0.997,2.089,1.689,1.358,0.885,2.027,1.526,337.0,589.0
2015-05-12,Tripoli,Libya,13.2001,32.9501,[12.7001 32.4501 13.7001 33.4501],1.408,0.923,2.035,1.627,1.304,0.821,1.947,1.472,335.0,592.0
2015-05-13,Tripoli,Libya,13.2001,32.9501,[12.7001 32.4501 13.7001 33.4501],1.422,0.966,2.046,1.646,1.318,0.822,1.926,1.464,336.0,597.0
2015-05-14,Tripoli,Libya,13.2001,32.9501,[12.7001 32.4501 13.7001 33.4501],1.439,0.966,2.046,1.618,1.301,0.797,1.933,1.449,318.0,602.0
2015-05-15,Tripoli,Libya,13.2001,32.9501,[12.7001 32.4501 13.7001 33.4501],1.417,0.929,2.031,1.593,1.311,0.817,1.92,1.447,337.0,588.0
2015-05-16,Tripoli,Libya,13.2001,32.9501,[12.7001 32.4501 13.7001 33.4501],1.562,1.052,2.293,1.715,1.355,0.848,1.991,1.498,297.0,588.0
2015-05-17,Tripoli,Libya,13.2001,32.9501,[12.7001 32.4501 13.7001 33.4501],1.562,1.091,2.093,1.707,1.334,0.836,1.96,1.492,335.0,584.0
2015-05-18,Tripoli,Libya,13.2001,32.9501,[12.7001 32.4501 13.7001 33.4501],1.577,1.049,2.391,1.747,1.343,0.827,2.054,1.513,298.0,537.0
2015-05-19,Tripoli,Libya,13.2001,32.9501,[12.7001 32.4501 13.7001 33.4501],1.526,1.023,2.163,1.672,1.349,0.828,2.03,1.514,304.0,588.0
2015-05-20,Tripoli,Libya,13.2001,32.9501,[12.7001 32.4501 13.7001 33.4501],1.526,1.022,2.164,1.676,1.349,0.832,2.006,1.494,316.0,602.0
2015-05-21,Tripoli,Libya,13.2001,32.9501,[12.7001 32.4501 13.7001 33.4501],1.544,1.023,2.174,1.682,1.354,0.804,2.011,1.478,315.0,619.0
2015-05-22,Tripoli,Libya,13.2001,32.9501,[12.7001 32.4501 13.7001 33.4501],1.536,1.022,2.164,1.645,1.336,0.799,1.983,1.459,323.0,610.0
2015-05-23,Tripoli,Libya,13.2001,32.9501,[12.7001 32.4501 13.7001 33.4501],1.545,1.042,2.174,1.657,1.339,0.803,1.973,1.455,293.0,615.0
2015-05-24,Tripoli,Libya,13.2001,32.9501,[12.7001 32.4501 13.7001 33.4501],1.684,1.087,2.391,1.745,1.403,0.849,2.049,1.495,323.0,599.0
2015-05-25,Tripoli,Libya,13.2001,32.9501,[12.7001 32.4501 13.7001 33.4501],1.536,1.022,2.174,1.679,1.34,0.81,1.95,1.45,284.0,591.0
2015-05-26,Tripoli,Libya,13.2001,32.9501,[12.7001 32.4501 13.7001 33.4501],1.727,1.091,2.468,1.823,1.359,0.835,1.985,1.464,297.0,590.0
2015-05-27,Tripoli,Libya,13.2001,32.9501,[12.7001 32.4501 13.7001 33.4501],1.777,1.184,2.49,1.89,1.416,0.894,2.033,1.512,300.0,596.0
2015-05-28,Tripoli,Libya,13.2001,32.9501,[12.7001 32.4501 13.7001 33.4501],1.769,1.167,2.464,1.849,1.423,0.889,2.048,1.51,277.0,598.0
2015-05-29,Tripoli,Libya,13.2001,32.9501,[12.7001 32.4501 13.7001 33.4501],1.769,1.167,2.464,1.851,1.408,0.886,2.036,1.499,279.0,603.0
2015-05-30,Tripoli,Libya,13.2001,32.9501,[12.7001 32.4501 13.7001 33.4501],1.84,1.235,2.576,1.971,1.429,0.912,2.104,1.533,286.0,609.0
2015-05-31,Tripoli,Libya,13.2001,32.9501,[12.7001 32.4501 13.7001 33.4501],1.861,1.239,2.569,1.984,1.451,0.94,2.08,1.521,304.0,593.0
2015-06-01,Tripoli,Libya,13.2001,32.9501,[12.7001 32.4501 13.7001 33.4501],1.992,1.233,2.679,2.051,1.457,0.946,2.081,1.523,266.0,592.0
2015-06-02,Tripoli,Libya,13.2001,32.9501,[12.7001 32.4501 13.7001 33.4501],1.992,1.233,2.675,2.031,1.489,0.955,2.109,1.543,291.0,635.0
2015-06-03,Tripoli,Libya,13.2001,32.9501,[12.7001 32.4501 13.7001 33.4501],2.224,1.425,2.849,2.168,1.516,1.005,2.119,1.558,254.0,593.0
2015-06-04,Tripoli,Libya,13.2001,32.9501,[12.7001 32.4501 13.7001 33.4501],2.346,1.693,2.87,2.304,1.599,1.088,2.176,1.639,261.0,595.0
2015-06-05,Tripoli,Libya,13.2001,32.9501,[12.7001 32.4501 13.7001 33.4501],2.324,1.638,2.922,2.281,1.597,1.085,2.178,1.643,271.0,585.0
2015-06-06,Tripoli,Libya,13.2001,32.9501,[12.7001 32.4501 13.7001 33.4501],2.311,1.586,2.87,2.27,1.627,1.128,2.187,1.68,264.0,581.0
2015-06-07,Tripoli,Libya,13.2001,32.9501,[12.7001 32.4501 13.7001 33.4501],2.265,1.468,2.847,2.218,1.67,1.141,2.224,1.709,290.0,574.0
2015-06-08,Tripoli,Libya,13.2001,32.9501,[12.7001 32.4501 13.7001 33.4501],2.174,1.275,2.847,2.13,1.668,1.105,2.242,1.707,278.0,610.0
2015-06-09,Tripoli,Libya,13.2001,32.9501,[12.7001 32.4501 13.7001 33.4501],2.094,1.217,2.782,2.102,1.649,1.099,2.235,1.711,305.0,597.0
2015-06-10,Tripoli,Libya,13.2001,32.9501,[12.7001 32.4501 13.7001 33.4501],1.962,1.161,2.674,2.02,1.574,1.062,2.159,1.65,265.0,636.0
2015-06-11,Tripoli,Libya,13.2001,32.9501,[12.7001 32.4501 13.7001 33.4501],1.774,1.049,2.471,1.87,1.527,1.002,2.101,1.597,275.0,645.0
2015-06-12,Tripoli,Libya,13.2001,32.9501,[12.7001 32.4501 13.7001 33.4501],1.774,1.049,2.483,1.886,1.496,0.985,2.105,1.581,301.0,650.0
2015-06-13,Tripoli,Libya,13.2001,32.9501,[12.7001 32.4501 13.7001 33.4501],1.738,1.083,2.451,1.86,1.502,0.991,2.11,1.579,322.0,652.0
2015-06-14,Tripoli,Libya,13.2001,32.9501,[12.7001 32.4501 13.7001 33.4501],1.621,1.04,2.378,1.787,1.495,1.005,2.089,1.595,325.0,656.0
2015-06-15,Tripoli,Libya,13.2001,32.9501,[12.7001 32.4501 13.7001 33.4501],1.567,1.031,2.371,1.752,1.501,0.992,2.101,1.592,333.0,659.0
2015-06-16,Tripoli,Libya,13.2001,32.9501,[12.7001 32.4501 13.7001 33.4501],1.627,1.031,2.402,1.802,1.552,1.006,2.14,1.636,353.0,642.0
2015-06-17,Tripoli,Libya,13.2001,32.9501,[12.7001 32.4501 13.7001 33.4501],1.579,1.03,2.371,1.793,1.523,0.997,2.108,1.624,328.0,642.0
2015-06-18,Tripoli,Libya,13.2001,32.9501,[12.7001 32.4501 13.7001 33.4501],1.516,1.03,2.219,1.725,1.523,0.991,2.111,1.629,367.0,637.0
2015-06-19,Tripoli,Libya,13.2001,32.9501,[12.7001 32.4501 13.7001 33.4501],1.335,0.949,1.932,1.543,1.478,0.951,2.03,1.578,330.0,594.0
2015-06-20,Tripoli,Libya,13.2001,32.9501,[12.7001 32.4501 13.7001 33.4501],1.425,1.031,2.068,1.61,1.514,0.977,2.086,1.614,334.0,642.0
2015-06-21,Tripoli,Libya,13.2001,32.9501,[12.7001 32.4501 13.7001 33.4501],1.443,1.04,2.091,1.653,1.513,0.966,2.126,1.63,345.0,656.0
2015-06-22,Tripoli,Libya,13.2001,32.9501,[12.7001 32.4501 13.7001 33.4501],1.516,1.083,2.097,1.692,1.549,0.984,2.147,1.652,340.0,674.0
2015-06-23,Tripoli,Libya,13.2001,32.9501,[12.7001 32.4501 13.7001 33.4501],1.539,1.094,2.143,1.782,1.495,0.975,2.11,1.639,346.0,640.0
2015-06-24,Tripoli,Libya,13.2001,32.9501,[12.7001 32.4501 13.7001 33.4501],1.567,1.12,2.143,1.785,1.519,0.988,2.132,1.657,337.0,645.0